TimeCST,TemperatureF,Dew PointF,Humidity,Sea Level PressureIn,VisibilityMPH,Wind Direction,Wind SpeedMPH,Gust SpeedMPH,PrecipitationIn,Events,Conditions,WindDirDegrees,DateUTC
12:15 AM,-2.2,-9.4,71,30.48,-9999.0,Calm,Calm,-,N/A,,Clear,0,2014-01-28 06:15:00
12:35 AM,-2.2,-9.4,71,30.48,-9999.0,Calm,Calm,-,N/A,,Clear,0,2014-01-28 06:35:00
12:55 AM,-2.2,-9.4,71,30.47,-9999.0,Calm,Calm,-,N/A,,Clear,0,2014-01-28 06:55:00
1:15 AM,-2.2,-9.4,71,30.47,-9999.0,Calm,Calm,-,N/A,,Clear,0,2014-01-28 07:15:00
1:35 AM,-2.2,-9.4,71,30.46,-9999.0,Calm,Calm,-,N/A,,Clear,0,2014-01-28 07:35:00
1:55 AM,-2.2,-9.4,71,30.45,-9999.0,Calm,Calm,-,N/A,,Clear,0,2014-01-28 07:55:00
2:10 AM,-2.2,-9.4,71,30.45,-9999.0,Calm,Calm,-,N/A,,Clear,0,2014-01-28 08:10:00
2:35 AM,-4.0,-9.4,78,30.45,-9999.0,Calm,Calm,-,N/A,,Clear,0,2014-01-28 08:35:00
2:55 AM,-4.0,-9.4,78,30.44,-9999.0,Calm,Calm,-,N/A,,Clear,0,2014-01-28 08:55:00
3:15 AM,-4.0,-11.2,71,30.45,-9999.0,Calm,Calm,-,N/A,,Clear,0,2014-01-28 09:15:00
3:35 AM,-4.0,-9.4,78,30.45,-9999.0,Calm,Calm,-,N/A,,Clear,0,2014-01-28 09:35:00
3:55 AM,-4.0,-9.4,78,30.44,-9999.0,Calm,Calm,-,N/A,,Clear,0,2014-01-28 09:55:00
4:15 AM,-4.0,-11.2,71,30.44,-9999.0,Calm,Calm,-,N/A,,Clear,0,2014-01-28 10:15:00
4:35 AM,-4.0,-11.2,71,30.44,-9999.0,Calm,Calm,-,N/A,,Clear,0,2014-01-28 10:35:00
4:55 AM,-4.0,-9.4,78,30.44,-9999.0,Calm,Calm,-,N/A,,Clear,0,2014-01-28 10:55:00
5:15 AM,-4.0,-11.2,71,30.45,-9999.0,Calm,Calm,-,N/A,,Clear,0,2014-01-28 11:15:00
5:35 AM,-4.0,-9.4,78,30.45,-9999.0,Calm,Calm,-,N/A,,Clear,0,2014-01-28 11:35:00
5:55 AM,-2.2,-9.4,71,30.45,-9999.0,Calm,Calm,-,N/A,,Clear,0,2014-01-28 11:55:00
6:15 AM,-2.2,-9.4,71,30.46,-9999.0,Calm,Calm,-,N/A,,Clear,0,2014-01-28 12:15:00
6:35 AM,-4.0,-11.2,71,30.46,-9999.0,Calm,Calm,-,N/A,,Clear,0,2014-01-28 12:35:00
6:55 AM,-4.0,-11.2,71,30.46,-9999.0,Calm,Calm,-,N/A,,Clear,0,2014-01-28 12:55:00
7:15 AM,-4.0,-11.2,71,30.46,-9999.0,Calm,Calm,-,N/A,,Clear,0,2014-01-28 13:15:00
7:35 AM,-2.2,-9.4,71,30.46,-9999.0,Calm,Calm,-,N/A,,Clear,0,2014-01-28 13:35:00
7:55 AM,-2.2,-9.4,71,30.46,-9999.0,Calm,Calm,-,N/A,,Clear,0,2014-01-28 13:55:00
8:15 AM,-0.4,-7.6,72,30.46,-9999.0,Calm,Calm,-,N/A,,Clear,0,2014-01-28 14:15:00
8:35 AM,1.4,-7.6,66,30.46,-9999.0,Calm,Calm,-,N/A,,Clear,0,2014-01-28 14:35:00
8:55 AM,3.2,-4.0,72,30.46,-9999.0,Calm,Calm,-,N/A,,Clear,0,2014-01-28 14:55:00
9:15 AM,5.0,-4.0,66,30.46,-9999.0,Calm,Calm,-,N/A,,Clear,0,2014-01-28 15:15:00
9:35 AM,6.8,-4.0,61,30.46,-9999.0,Calm,Calm,-,N/A,,Clear,0,2014-01-28 15:35:00
9:55 AM,6.8,-4.0,61,30.45,-9999.0,Calm,Calm,-,N/A,,Clear,0,2014-01-28 15:55:00
10:15 AM,8.6,-4.0,57,30.46,-9999.0,Calm,Calm,-,N/A,,Clear,0,2014-01-28 16:15:00
10:35 AM,10.4,-4.0,52,30.45,-9999.0,Calm,Calm,-,N/A,,Clear,0,2014-01-28 16:35:00
10:55 AM,10.4,-4.0,52,30.44,-9999.0,Calm,Calm,-,N/A,,Clear,0,2014-01-28 16:55:00
11:15 AM,10.4,-4.0,52,30.44,-9999.0,Calm,Calm,-,N/A,,Clear,0,2014-01-28 17:15:00
11:35 AM,14.0,-4.0,45,30.42,-9999.0,Calm,Calm,-,N/A,,Clear,0,2014-01-28 17:35:00
11:55 AM,14.0,-5.8,41,30.41,-9999.0,Calm,Calm,-,N/A,,Clear,0,2014-01-28 17:55:00
12:15 PM,14.0,-4.0,45,30.39,-9999.0,Calm,Calm,-,N/A,,Clear,0,2014-01-28 18:15:00
12:35 PM,14.0,-5.8,41,30.38,-9999.0,Calm,Calm,-,N/A,,Clear,0,2014-01-28 18:35:00
12:55 PM,15.8,-5.8,38,30.37,-9999.0,Calm,Calm,-,N/A,,Clear,0,2014-01-28 18:55:00
1:15 PM,15.8,-5.8,38,30.36,-9999.0,Calm,Calm,-,N/A,,Clear,0,2014-01-28 19:15:00
1:35 PM,15.8,-5.8,38,30.34,-9999.0,Calm,Calm,-,N/A,,Clear,0,2014-01-28 19:35:00
1:55 PM,17.6,-5.8,35,30.34,-9999.0,Calm,Calm,-,N/A,,Clear,0,2014-01-28 19:55:00
2:15 PM,17.6,-4.0,38,30.33,-9999.0,Calm,Calm,-,N/A,,Clear,0,2014-01-28 20:15:00
2:35 PM,17.6,-5.8,35,30.32,-9999.0,Calm,Calm,-,N/A,,Clear,0,2014-01-28 20:35:00
2:55 PM,17.6,-4.0,38,30.31,-9999.0,Calm,Calm,-,N/A,,Clear,0,2014-01-28 20:55:00
3:15 PM,17.6,-5.8,35,30.31,-9999.0,Calm,Calm,-,N/A,,Clear,0,2014-01-28 21:15:00
3:35 PM,17.6,-5.8,35,30.30,-9999.0,Calm,Calm,-,N/A,,Clear,0,2014-01-28 21:35:00
3:55 PM,17.6,-5.8,35,30.30,-9999.0,Calm,Calm,-,N/A,,Clear,0,2014-01-28 21:55:00
4:15 PM,17.6,-4.0,38,30.30,-9999.0,Calm,Calm,-,N/A,,Clear,0,2014-01-28 22:15:00
4:35 PM,17.6,-4.0,38,30.30,-9999.0,Calm,Calm,-,N/A,,Clear,0,2014-01-28 22:35:00
4:55 PM,17.6,-4.0,38,30.30,-9999.0,Calm,Calm,-,N/A,,Clear,0,2014-01-28 22:55:00
5:15 PM,15.8,-4.0,41,30.30,-9999.0,Calm,Calm,-,N/A,,Clear,0,2014-01-28 23:15:00
5:35 PM,14.0,-4.0,45,30.30,-9999.0,Calm,Calm,-,N/A,,Clear,0,2014-01-28 23:35:00
5:55 PM,12.2,-4.0,48,30.30,-9999.0,Calm,Calm,-,N/A,,Clear,0,2014-01-28 23:55:00
6:15 PM,10.4,-4.0,52,30.30,-9999.0,Calm,Calm,-,N/A,,Clear,0,2014-01-29 00:15:00
6:35 PM,10.4,-4.0,52,30.29,-9999.0,Calm,Calm,-,N/A,,Clear,0,2014-01-29 00:35:00
6:55 PM,10.4,-4.0,52,30.29,-9999.0,Calm,Calm,-,N/A,,Clear,0,2014-01-29 00:55:00
7:15 PM,8.6,-4.0,57,30.29,-9999.0,Calm,Calm,-,N/A,,Clear,0,2014-01-29 01:15:00
7:35 PM,8.6,-4.0,57,30.29,-9999.0,Calm,Calm,-,N/A,,Clear,0,2014-01-29 01:35:00
7:55 PM,8.6,-4.0,57,30.29,-9999.0,Calm,Calm,-,N/A,,Clear,0,2014-01-29 01:55:00
8:15 PM,8.6,-4.0,57,30.29,-9999.0,Calm,Calm,-,N/A,,Clear,0,2014-01-29 02:15:00
8:35 PM,8.6,-4.0,57,30.29,-9999.0,Calm,Calm,-,N/A,,Clear,0,2014-01-29 02:35:00
8:55 PM,8.6,-4.0,57,30.29,-9999.0,Calm,Calm,-,N/A,,Clear,0,2014-01-29 02:55:00
9:15 PM,8.6,-4.0,57,30.29,-9999.0,Calm,Calm,-,N/A,,Clear,0,2014-01-29 03:15:00
9:35 PM,6.8,-4.0,61,30.28,-9999.0,Calm,Calm,-,N/A,,Clear,0,2014-01-29 03:35:00
9:55 PM,5.0,-4.0,66,30.28,-9999.0,Calm,Calm,-,N/A,,Clear,0,2014-01-29 03:55:00
10:15 PM,5.0,-2.2,72,30.28,-9999.0,Calm,Calm,-,N/A,,Clear,0,2014-01-29 04:15:00
10:35 PM,5.0,-4.0,66,30.28,-9999.0,Calm,Calm,-,N/A,,Clear,0,2014-01-29 04:35:00
10:55 PM,6.8,-4.0,61,30.28,-9999.0,Calm,Calm,-,N/A,,Clear,0,2014-01-29 04:55:00
11:15 PM,5.0,-4.0,66,30.27,-9999.0,Calm,Calm,-,N/A,,Clear,0,2014-01-29 05:15:00
11:35 PM,3.2,-4.0,72,30.27,-9999.0,Calm,Calm,-,N/A,,Clear,0,2014-01-29 05:35:00
11:55 PM,3.2,-4.0,72,30.26,-9999.0,Calm,Calm,-,N/A,,Clear,0,2014-01-29 05:55:00